Location: Bremen
(53.0793°N, 8.8017°E)
Time: 12:51:40
(UTC+02:00)

Transit 2A Rocket - Pass Details

Date: 19 June 2024
Orbit: 582 x 910 km, 66.7° (Epoch: 19 July)

Event Time Altitude Azimuth Distance (km) Brightness Sun altitude
Rises 00:18:40 0° 245° (WSW) 3,171 8.1 -12.1°
Reaches altitude 10° 00:21:04 10° 252° (WSW) 2,303 7.5 -12.2°
Maximum altitude 00:26:08 43° 324° (NW) 1,137 6.4 -12.4°
Drops below altitude 10° 00:31:40 10° 36° (NE) 2,510 8.3 -12.6°
Sets 00:34:23 0° 43° (NE) 3,488 8.9 -12.7°
